Location: Jastrz?bniki
(50.3667°N, 20.3833°E)
Time: 11:18:27
(UTC+00:00)

CZ-2C R/B - Pass Details

Date: 05 August 2024
Orbit: 782 x 869 km, 98.3° (Epoch: 07 September)

Event Time Altitude Azimuth Distance (km) Brightness Sun altitude
Exits shadow 00:43:51 26° 184° (S) 1,620 3.7 -17.8°
Maximum altitude 00:46:59 65° 258° (WSW) 945 2.7 -17.6°
Drops below altitude 10° 00:52:29 10° 340° (NNW) 2,480 5.7 -17.1°
Sets 00:54:52 0° 344° (NNW) 3,407 6.5 -16.9°
